| time (UTC) | temp C | wind direction | speed KPH | gust KPH | rain 1hr cm | rain 24hr cm | rain mn cm | humidity % | barometer mb |
| 20260504081008 | 20 | 218 | 1.6 | 4.8 | 0.00 | 0.00 | 0.00 | 71 | 1012.2 |
| 20260504050009 | 17 | 355 | 4.8 | 6.4 | 0.00 | 0.00 | 0.00 | 81 | 1011.9 |
| 20260504045008 | 17 | 348 | 3.2 | 4.8 | 0.00 | 0.00 | 0.00 | 81 | 1011.9 |
| 20260504044008 | 17 | 340 | 4.8 | 8.0 | 0.00 | 0.00 | 0.00 | 81 | 1011.9 |
| 20260504043009 | 17 | 315 | 1.6 | 4.8 | 0.00 | 0.00 | 0.00 | 81 | 1011.9 |
| 20260504041007 | 17 | 198 | 3.2 | 6.4 | 0.00 | 0.00 | 0.00 | 81 | 1012.1 |
| 20260504040022 | 17 | 180 | 1.6 | 3.2 | 0.00 | 0.00 | 0.00 | 81 | 1012.1 |
| 20260504034008 | 17 | 180 | 1.6 | 3.2 | 0.00 | 0.00 | 0.00 | 81 | 1012.4 |
| 20260504033028 | 17 | 180 | 1.6 | 3.2 | 0.00 | 0.00 | 0.00 | 81 | 1012.5 |
| 20260504031008 | 17 | 212 | 1.6 | 3.2 | 0.00 | 0.00 | 0.00 | 79 | 1012.7 |
| 20260504030020 | 17 | 85 | 1.6 | 3.2 | 0.00 | 0.00 | 0.00 | 79 | 1012.8 |
| 20260504024010 | 17 | 44 | 3.2 | 4.8 | 0.00 | 0.00 | 0.00 | 80 | 1012.9 |
| 20260504023012 | 18 | 28 | 1.6 | 4.8 | 0.00 | 0.00 | 0.00 | 80 | 1012.8 |
| 20260504021008 | 17 | 45 | 1.6 | 3.2 | 0.00 | 0.00 | 0.00 | 79 | 1012.8 |
| 20260504020009 | 17 | 23 | 3.2 | 4.8 | 0.00 | 0.00 | 0.00 | 78 | 1012.8 |
| 20260504015008 | 17 | 358 | 3.2 | 6.4 | 0.00 | 0.00 | 0.00 | 78 | 1012.7 |
| 20260504014022 | 17 | 6 | 3.2 | 4.8 | 0.00 | 0.00 | 0.00 | 79 | 1012.7 |
| 20260504013010 | 17 | 351 | 3.2 | 6.4 | 0.00 | 0.00 | 0.00 | 79 | 1012.7 |
| 20260504012010 | 17 | 347 | 3.2 | 6.4 | 0.00 | 0.00 | 0.00 | 79 | 1012.9 |
| 20260504011009 | 17 | 349 | 3.2 | 4.8 | 0.00 | 0.00 | 0.00 | 80 | 1012.8 |
| 20260504005008 | 17 | 283 | 3.2 | 6.4 | 0.00 | 0.00 | 0.00 | 82 | 1012.8 |
| 20260504003026 | 17 | 285 | 1.6 | 3.2 | 0.00 | 0.00 | 0.00 | 82 | 1012.9 |
| 20260504001008 | 18 | 225 | 1.6 | 3.2 | 0.00 | 0.00 | 0.00 | 82 | 1013.2 |
| 20260504000011 | 17 | 225 | 1.6 | 3.2 | 0.00 | 0.00 | 0.00 | 82 | 1013.4 |
| 20260503234011 | 17 | 225 | 3.2 | 4.8 | 0.00 | 0.00 | 0.00 | 83 | 1013.5 |
| 20260503232009 | 17 | 225 | 3.2 | 4.8 | 0.00 | 0.00 | 0.00 | 83 | 1013.6 |
| 20260503231010 | 17 | 225 | 3.2 | 4.8 | 0.00 | 0.00 | 0.00 | 83 | 1013.6 |
| 20260503230008 | 17 | 225 | 3.2 | 4.8 | 0.00 | 0.00 | 0.00 | 82 | 1013.6 |
| 20260503225008 | 17 | 225 | 3.2 | 4.8 | 0.00 | 0.00 | 0.00 | 82 | 1013.6 |
| 20260503224010 | 17 | 222 | 1.6 | 4.8 | 0.00 | 0.00 | 0.00 | 81 | 1013.6 |
| 20260503223019 | 18 | 97 | 1.6 | 3.2 | 0.00 | 0.00 | 0.00 | 81 | 1013.6 |
| 20260503222007 | 18 | 90 | 0.0 | 1.6 | 0.00 | 0.00 | 0.00 | 80 | 1013.6 |
| 20260503221008 | 18 | 131 | 1.6 | 3.2 | 0.00 | 0.00 | 0.00 | 80 | 1013.6 |
| 20260503220019 | 18 | 97 | 3.2 | 4.8 | 0.00 | 0.00 | 0.00 | 80 | 1013.7 |
| 20260503215007 | 18 | 129 | 3.2 | 6.4 | 0.00 | 0.00 | 0.00 | 81 | 1013.9 |
| 20260503214008 | 18 | 137 | 4.8 | 8.0 | 0.00 | 0.00 | 0.00 | 81 | 1013.9 |
| 20260503213012 | 18 | 142 | 4.8 | 9.7 | 0.00 | 0.00 | 0.00 | 81 | 1013.9 |
| 20260503212010 | 18 | 189 | 3.2 | 6.4 | 0.00 | 0.00 | 0.00 | 80 | 1014.1 |
| 20260503210015 | 18 | 164 | 4.8 | 6.4 | 0.00 | 0.00 | 0.00 | 81 | 1014.0 |
| 20260503205010 | 18 | 134 | 4.8 | 6.4 | 0.00 | 0.00 | 0.00 | 81 | 1013.7 |
| 20260503204011 | 18 | 128 | 4.8 | 8.0 | 0.00 | 0.00 | 0.00 | 80 | 1013.6 |
| 20260503203025 | 18 | 129 | 6.4 | 9.7 | 0.00 | 0.00 | 0.00 | 80 | 1013.5 |
| 20260503202007 | 18 | 141 | 4.8 | 8.0 | 0.00 | 0.00 | 0.00 | 79 | 1013.2 |
| 20260503201019 | 18 | 125 | 6.4 | 9.7 | 0.00 | 0.00 | 0.00 | 79 | 1013.1 |
| 20260503195010 | 18 | 119 | 4.8 | 8.0 | 0.00 | 0.00 | 0.00 | 78 | 1013.0 |
| 20260503194008 | 18 | 85 | 4.8 | 6.4 | 0.00 | 0.00 | 0.00 | 78 | 1013.0 |
| 20260503193025 | 18 | 91 | 4.8 | 8.0 | 0.00 | 0.00 | 0.00 | 77 | 1012.7 |
| 20260503192008 | 18 | 100 | 6.4 | 9.7 | 0.00 | 0.00 | 0.00 | 77 | 1012.6 |
| 20260503191007 | 18 | 96 | 4.8 | 8.0 | 0.00 | 0.00 | 0.00 | 76 | 1012.8 |
| 20260503190010 | 18 | 88 | 6.4 | 9.7 | 0.00 | 0.00 | 0.00 | 75 | 1012.8 |
| 20260503185008 | 18 | 81 | 9.7 | 12.9 | 0.00 | 0.00 | 0.00 | 76 | 1012.8 |
| 20260503184009 | 18 | 81 | 8.0 | 11.3 | 0.00 | 0.00 | 0.00 | 74 | 1012.6 |
| 20260503183012 | 18 | 64 | 8.0 | 11.3 | 0.00 | 0.00 | 0.00 | 74 | 1012.7 |
| 20260503182009 | 18 | 72 | 8.0 | 14.5 | 0.00 | 0.00 | 0.00 | 74 | 1012.4 |
| 20260503181025 | 18 | 104 | 9.7 | 14.5 | 0.00 | 0.00 | 0.00 | 76 | 1012.6 |
| 20260503180024 | 18 | 86 | 9.7 | 16.1 | 0.00 | 0.00 | 0.00 | 73 | 1012.3 |
| 20260503175007 | 18 | 79 | 11.3 | 17.7 | 0.00 | 0.00 | 0.00 | 70 | 1012.3 |
| 20260503174008 | 18 | 77 | 9.7 | 16.1 | 0.00 | 0.00 | 0.00 | 70 | 1012.4 |
| 20260503173027 | 18 | 88 | 11.3 | 16.1 | 0.00 | 0.00 | 0.00 | 73 | 1012.3 |
| 20260503172008 | 19 | 81 | 11.3 | 16.1 | 0.00 | 0.00 | 0.00 | 73 | 1012.4 |
| 20260503171008 | 19 | 96 | 9.7 | 14.5 | 0.00 | 0.00 | 0.00 | 71 | 1012.6 |
| 20260503151009 | 20 | 105 | 9.7 | 14.5 | 0.00 | 0.00 | 0.00 | 64 | 1012.5 |
| 20260503131008 | 22 | 50 | 14.5 | 20.9 | 0.00 | 0.00 | 0.00 | 59 | 1013.7 |